Dewpoint
15 7 12 13 12 11 15 12 8 8 7 5 4 1 8 1 -1 1 4 5 6 4 3 5 5 27 34 37 39 41 42 41 40 41 41 45 45 46 54 60 59 61 61 62 63 64 65 66 66 66 67 67 67 66 67 67 67 68 66 66 68 67 67 66 65 66 65 64 64 64 63 63 64 66 67 67 68 67 66 67 66 66 69 68 67 67
15 10 12 12 8 12 14 15 17 10 10 6 5 -0 5 4 -2 -0 3 5 5 13 3 7 9 31 38 40 41 44 47 47 47 48 49 47 45 55 52 55 59 61 62 63 64 65 65 64 66 66 66 66 66 65 66 67 67 66 66 65 65 66 65 65 66 67 66 66 64 64 64 65 68 67 64 65 66 68 68 67 67 67 66 66 67 67
17 11 8 11 6 7 11 14 14 15 15 11 8 3 3 1 -1 3 5 5 4 4 5 3 17 31 33 38 43 46 47 49 50 50 50 52 53 55 58 58 60 60 60 60 61 62 62 64 65 65 65 66 66 66 66 66 66 65 66 66 66 66 65 65 65 65 65 66 66 65 67 67 68 68 67 67 68 68 68 68 67 68 67 67 66 66
18 10 6 7 6 7 9 12 16 16 19 15 9 6 1 -2 -3 3 8 7 3 7 15 23 27 35 37 38 45 47 48 50 51 52 54 54 54 54 55 56 57 57 57 58 58 59 59 60 60 61 62 63 63 62 63 63 64 64 64 65 65 64 65 65 67 65 66 67 67 67 67 68 68 66 67 67 68 68 67 67 67 67 66 67 66 66
12 9 5 5 4 5 15 13 13 16 17 17 9 0 -2 -2 -6 2 7 8 10 11 22 24 28 36 36 37 41 45 47 49 50 52 52 53 53 54 54 55 55 55 56 56 57 58 58 58 58 59 60 61 61 62 62 62 62 63 64 64 64 65 64 65 64 65 66 66 66 66 67 67 67 67 67 67 65 66 67 66 67 67 66 66 66 67
13 9 4 4 4 5 12 12 11 18 16 12 10 2 -1 -2 -1 5 10 7 9 10 16 20 20 27 31 33 36 42 44 46 50 50 50 51 52 51 52 53 53 54 54 55 55 56 57 57 58 58 59 59 60 61 62 63 64 63 62 63 63 64 65 64 65 66 66 66 65 65 65 65 66 65 64 64 64 64 65 64 66 66 65 65 66 66
13 10 5 4 5 2 5 11 12 16 13 11 6 5 1 -2 2 4 7 10 12 11 19 23 19 20 29 31 37 41 43 45 49 49 49 49 49 50 50 50 51 52 53 54 55 55 56 57 57 57 58 59 59 60 62 62 62 63 64 64 64 63 64 64 65 65 66 65 65 65 65 64 64 64 65 66 66 66 65 66 66 66 66 65 66 66
15 10 9 6 5 1 10 16 16 13 9 6 6 4 3 -1 -0 7 8 10 10 13 18 19 16 19 28 32 38 40 42 44 47 49 48 48 48 49 49 50 51 51 52 53 53 54 56 56 57 57 57 58 58 59 60 61 61 62 62 63 64 64 64 65 65 64 65 65 65 65 64 64 64 64 65 65 65 66 66 66 66 66 67 66 65 65
20 14 11 8 12 13 13 13 10 7 5 6 7 4 5 4 2 9 10 11 11 14 14 17 14 14 26 38 39 39 41 43 44 47 48 47 47 48 49 49 49 50 51 52 53 54 54 55 55 56 56 57 58 58 59 60 60 61 61 61 62 62 63 64 65 65 65 65 65 64 64 64 63 64 64 64 65 64 65 65 65 65 66 66 66 65
12 12 12 13 14 11 8 4 5 6 5 6 8 7 6 6 3 3 10 9 11 15 14 17 18 13 16 36 42 40 40 42 45 47 47 47 47 48 48 48 49 50 51 52 52 53 54 54 55 56 56 56 57 58 58 58 59 59 59 60 60 61 62 63 65 64 65 65 65 64 65 65 65 64 64 64 64 63 64 64 65 65 64 65 65 67
10 17 19 16 12 8 4 6 6 6 5 6 6 8 6 5 7 9 10 9 16 10 14 17 20 16 15 36 38 37 38 45 46 46 47 47 47 47 48 48 48 48 49 50 51 52 53 53 54 55 55 55 56 56 57 58 58 58 58 59 59 60 60 61 62 64 64 64 63 63 63 63 63 64 64 63 64 63 64 64 64 64 63 64 64 66
12 16 18 16 14 8 7 8 9 9 6 5 7 11 8 9 8 12 11 10 9 8 8 12 16 15 9 38 41 42 42 44 46 46 46 46 46 47 47 47 47 48 49 49 50 50 52 52 53 53 53 54 54 55 56 56 57 57 57 57 58 58 59 60 61 62 62 63 63 63 63 63 63 63 62 62 62 62 62 63 62 63 62 63 65 65
15 16 16 13 18 11 9 7 7 8 6 2 10 12 10 8 9 9 10 11 8 6 10 10 10 12 10 35 42 44 44 43 46 46 45 45 45 46 46 47 47 47 48 48 49 50 51 51 51 52 52 53 54 54 55 55 56 56 56 56 56 57 58 58 59 61 61 61 62 63 63 63 63 62 62 62 62 62 62 62 62 63 62 62 64 64
11 14 14 11 12 15 11 7 5 7 7 5 10 13 9 7 8 11 8 10 9 10 7 11 9 13 43 44 46 45 46 46 46 46 46 46 46 46 46 46 46 47 47 47 49 49 50 50 50 51 51 51 52 53 53 54 54 54 54 55 55 55 56 57 58 59 60 61 62 62 62 63 63 63 63 63 62 62 63 63 64 64 66 65 65 64
11 12 14 12 10 12 12 8 6 11 7 6 9 6 10 9 10 11 8 9 8 7 13 9 11 32 33 41 47 45 45 45 45 45 45 46 46 46 45 45 46 47 47 47 48 48 49 50 50 50 51 51 51 52 52 53 53 53 53 53 54 54 55 56 56 57 58 59 60 61 61 62 62 62 62 63 62 62 62 63 64 65 65 64 65 64
3 15 16 16 13 12 11 9 13 10 6 7 7 4 7 10 12 10 12 11 13 10 15 16 25 40 37 47 46 45 44 44 44 44 45 44 45 45 45 46 45 46 47 47 48 48 48 49 49 50 50 50 50 51 52 52 52 53 53 53 53 53 54 54 55 56 57 57 58 60 60 60 60 61 61 62 63 63 64 65 63 65 66 65 66 65
9 15 12 14 14 15 14 16 12 6 11 11 4 6 5 7 9 14 21 26 27 16 10 21 40 42 45 49 44 44 43 43 43 43 43 44 44 45 45 45 45 46 46 47 47 47 48 48 48 49 49 49 50 50 50 51 51 52 52 52 52 52 53 53 54 55 55 56 56 58 57 57 58 59 59 61 63 64 64 64 64 65 66 66 65 64
14 12 10 12 13 14 14 14 13 9 9 6 5 4 6 5 9 16 9 14 12 11 14 25 36 38 38 35 45 42 42 43 43 43 43 44 44 44 44 45 45 46 46 46 46 46 46 47 47 48 48 48 49 49 50 50 51 51 52 51 52 51 51 52 52 53 54 54 55 55 55 56 57 57 58 59 60 62 63 63 63 64 64 65 65 64
15 11 10 12 13 13 12 11 9 6 8 5 6 7 7 11 9 14 14 13 12 12 16 21 34 38 34 38 42 42 41 42 42 43 43 42 43 43 44 44 45 45 46 46 46 45 46 46 47 47 47 47 48 49 49 49 50 50 51 51 51 51 51 52 51 51 52 53 54 54 54 55 55 56 57 57 58 59 60 62 63 63 63 64 63 63
19 14 13 14 11 10 11 10 14 12 11 9 6 2 4 11 12 11 13 18 13 10 16 20 23 32 37 42 42 41 42 42 42 42 42 42 43 43 43 44 44 45 45 45 45 45 46 46 46 46 47 47 47 48 49 49 50 50 50 50 50 51 50 51 51 50 52 53 53 52 53 54 53 54 55 56 57 57 58 59 61 62 63 63 64 64
20 23 13 12 10 11 11 10 10 9 10 9 8 4 4 18 13 11 18 9 12 11 10 14 17 32 42 44 42 42 41 43 43 42 42 42 43 43 43 44 44 45 44 44 44 45 45 46 46 46 47 46 47 48 48 49 48 49 48 49 49 50 49 50 51 50 50 51 52 53 52 53 53 54 54 55 56 57 57 57 58 59 61 62 63 63
18 15 16 17 10 8 7 7 6 7 8 8 10 11 5 8 8 8 11 9 9 11 13 13 19 39 43 45 45 43 42 43 43 42 42 42 42 43 43 44 44 44 44 44 44 45 45 45 45 45 45 47 47 47 48 47 47 47 48 47 48 47 48 48 48 49 50 50 51 52 52 53 53 53 53 54 55 55 55 56 57 58 59 60 61 63
23 22 21 15 11 10 8 8 10 10 11 8 9 10 5 9 9 8 10 12 10 7 7 14 29 36 43 46 46 44 43 42 42 42 42 42 42 43 43 44 44 44 43 43 44 44 44 45 45 45 45 45 45 46 46 45 45 46 47 47 48 47 47 47 47 47 49 49 50 51 52 52 52 52 53 53 54 54 54 55 56 56 58 58 59 61
25 25 16 13 5 8 8 6 8 10 12 9 7 6 3 8 9 10 10 14 10 12 10 8 27 36 42 44 43 43 42 42 42 42 41 42 42 42 42 43 42 42 43 43 43 44 43 43 44 43 42 42 44 45 45 44 44 45 46 46 45 47 47 47 47 47 48 49 50 51 51 51 51 52 51 52 52 53 53 54 55 55 56 57 58 59
20 23 16 14 12 9 17 18 9 14 16 15 11 11 5 8 9 15 13 18 13 14 10 10 24 34 40 43 42 41 41 41 41 41 42 41 42 42 42 42 42 42 42 42 42 42 42 42 42 41 41 41 42 42 44 43 43 44 45 45 45 45 46 46 46 46 46 48 49 50 49 51 51 51 51 51 51 52 52 53 53 54 54 55 56 58
18 23 18 14 14 12 16 16 14 15 17 19 13 9 9 6 15 13 10 13 11 17 11 13 29 38 41 41 41 40 40 40 41 41 41 41 41 41 42 42 41 41 41 42 42 42 42 41 41 42 43 41 42 41 41 42 42 43 43 44 45 43 45 45 45 45 46 48 48 48 49 49 49 49 50 50 50 51 51 52 52 52 53 53 54 56
22 33 27 28 18 12 17 18 21 15 17 14 16 13 13 8 8 15 17 11 12 19 16 21 38 36 36 40 39 39 39 39 39 40 40 40 41 41 41 41 41 41 41 41 42 42 42 42 42 43 43 42 43 42 41 42 41 42 43 44 43 43 44 45 46 45 46 47 48 47 48 48 48 49 50 50 49 50 50 50 51 50 50 52 52 53
25 29 39 37 33 32 28 17 20 16 17 17 17 15 13 18 20 18 13 16 20 18 13 39 38 37 37 38 38 38 39 39 39 39 40 39 40 40 41 40 40 38 40 40 41 41 41 42 42 43 43 42 42 42 41 42 42 41 41 42 42 43 44 46 45 45 45 45 46 46 47 47 48 48 48 48 48 48 49 48 49 49 50 50 50 51
28 28 38 39 34 30 33 31 26 17 15 16 17 24 22 21 23 23 23 24 29 29 28 39 39 38 37 38 38 38 38 39 39 39 40 40 39 38 39 38 38 38 39 39 40 40 40 40 42 42 42 42 42 42 42 40 40 42 42 41 41 42 43 44 44 44 44 45 45 46 46 47 47 47 47 47 47 47 47 47 48 48 48 49 49 50
28 34 38 34 33 30 29 29 26 22 24 23 22 24 26 24 26 26 25 30 33 39 40 39 39 39 38 38 38 38 39 39 38 38 38 37 37 38 37 38 37 38 38 38 39 39 40 40 41 41 42 42 41 41 40 40 40 41 41 42 42 42 43 44 44 44 44 44 44 45 44 45 46 45 46 46 46 46 46 46 47 47 47 47 48 48
31 33 38 37 35 34 33 34 33 35 34 33 27 23 23 28 31 34 40 41 41 39 39 38 38 36 38 38 38 38 38 37 37 36 36 36 36 37 37 36 38 37 37 38 38 39 39 40 40 40 40 41 40 41 41 41 40 41 41 41 41 41 42 42 43 43 43 43 44 44 44 44 44 44 44 45 45 46 45 45 46 46 46 47 47 47
38 33 37 36 29 34 33 34 38 37 38 38 39 39 38 39 39 40 38 41 40 39 38 37 34 32 37 37 37 37 37 36 36 36 36 36 36 36 36 37 37 38 38 38 38 38 38 38 39 40 40 40 40 40 40 40 40 40 40 40 40 41 41 43 43 42 43 43 44 44 43 44 43 43 43 44 43 44 44 45 45 45 45 46 46 46
33 36 33 31 27 29 36 37 36 37 34 32 34 37 38 38 39 40 40 41 41 40 35 32 33 35 36 37 36 36 36 35 35 35 35 35 36 36 36 36 36 37 37 37 38 38 38 38 39 40 40 39 39 39 40 39 39 40 40 40 40 41 41 42 42 42 42 43 43 42 43 43 42 42 43 43 43 44 44 44 44 44 44 45 46 46
33 34 32 35 27 31 36 38 37 28 20 23 37 39 40 36 37 38 38 39 40 39 36 36 35 36 36 36 35 35 35 35 35 36 36 36 36 36 36 36 37 37 38 38 38 38 38 38 39 39 39 39 39 39 40 40 39 40 40 39 39 40 40 40 40 41 41 42 42 42 42 42 42 42 42 43 43 43 43 43 43 44 44 45 45 44
32 34 31 32 29 30 34 36 32 26 20 35 38 38 38 37 38 37 37 38 38 37 37 35 35 35 35 35 35 35 35 35 35 35 35 35 36 36 36 36 37 38 38 38 38 38 38 39 39 39 39 39 39 40 39 39 39 39 39 39 38 38 38 39 38 40 41 41 41 41 42 42 42 42 42 42 42 43 42 42 43 43 43 43 43 43
31 31 31 30 27 30 30 30 27 25 35 37 37 39 39 38 37 37 36 36 36 36 36 35 35 35 35 35 34 34 34 34 34 35 35 35 36 36 37 37 37 38 37 38 38 38 38 38 38 39 38 38 37 36 36 37 38 38 38 38 38 38 37 37 37 37 39 39 39 39 40 41 41 42 41 42 42 42 42 42 43 43 43 43 43 43
38 33 31 30 32 27 29 29 31 34 35 35 36 36 36 35 36 35 31 34 37 36 36 35 34 34 34 34 34 34 34 34 34 34 36 36 37 37 37 37 38 38 38 38 38 38 38 38 38 38 38 38 38 36 37 37 37 37 37 37 38 37 37 37 36 36 37 38 37 38 39 40 40 41 41 41 41 41 42 42 43 43 42 42 42 42
34 30 29 29 28 28 27 26 28 26 26 31 36 39 39 42 41 39 36 34 37 36 35 34 33 33 33 33 34 34 35 33 32 33 35 36 37 37 36 37 37 37 37 38 37 37 37 37 37 37 37 37 37 37 36 36 36 36 36 37 37 36 37 36 36 36 36 36 36 37 37 39 39 40 40 40 40 41 42 42 42 42 43 42 41 41
36 39 36 25 28 27 27 23 26 25 30 34 37 38 41 41 43 40 34 32 35 36 35 34 33 33 33 33 34 35 34 32 31 33 35 36 36 36 36 36 37 37 37 37 37 36 35 36 36 35 36 36 36 36 36 35 36 34 35 35 35 35 35 35 35 36 35 36 35 36 37 38 39 39 39 39 40 41 41 41 41 41 42 42 42 42
35 31 27 24 28 26 25 25 23 30 30 35 37 37 37 38 39 38 28 29 36 35 35 35 34 34 34 34 34 34 33 31 31 33 35 35 35 36 36 36 36 36 36 36 36 36 36 36 34 35 35 34 35 36 35 34 33 34 34 35 34 34 34 34 35 34 35 35 36 36 36 38 38 39 38 38 39 39 40 41 41 40 40 41 40 41
32 28 27 26 25 25 26 26 28 32 36 38 37 37 37 40 38 30 24 32 36 35 35 35 35 35 35 34 35 34 35 34 34 35 36 35 35 35 36 36 36 35 35 34 34 36 33 33 33 31 32 32 33 33 34 33 34 34 31 33 33 33 34 34 34 34 34 35 34 35 35 36 37 38 38 38 38 38 39 39 40 40 39 39 39 41
28 27 26 28 24 26 26 26 27 30 36 38 37 37 38 38 28 26 36 38 36 36 36 35 35 35 35 36 36 34 35 35 35 35 35 35 35 36 35 35 35 34 35 35 36 35 34 31 33 33 32 32 31 32 33 33 33 33 32 32 32 33 33 33 32 33 32 33 33 34 35 36 38 39 39 38 38 38 38 37 38 39 39 38 38 39
29 25 22 23 25 24 26 27 26 26 34 39 38 36 38 34 34 37 37 37 37 36 35 35 35 36 37 35 35 35 35 35 35 35 35 35 35 35 35 34 35 34 35 35 33 28 29 30 32 32 34 32 32 32 32 33 33 32 31 31 32 31 31 32 33 31 32 32 33 34 34 36 37 38 38 38 38 37 37 37 37 38 38 39 38 38
36 28 23 29 34 21 20 24 27 33 36 40 38 32 36 36 38 38 38 36 37 36 35 35 36 36 36 35 35 34 34 34 34 35 35 35 35 36 35 35 35 33 31 29 29 29 29 29 31 32 34 33 33 32 32 32 31 30 30 31 31 32 32 31 32 32 32 33 32 33 33 33 36 37 37 37 36 36 37 37 36 36 37 37 37 36
36 36 35 30 35 32 30 33 36 37 38 39 38 37 38 39 39 39 38 37 36 36 38 37 36 36 36 35 35 35 34 35 34 35 35 35 35 35 35 33 32 31 32 31 29 30 30 30 33 32 32 33 34 33 32 31 31 31 31 31 31 27 29 31 30 32 32 32 31 33 31 33 35 37 36 36 36 35 35 36 36 34 35 36 36 36
37 37 38 35 34 37 38 38 39 38 38 37 37 38 38 38 38 38 37 36 37 38 38 36 36 36 36 35 34 34 34 34 35 35 35 35 34 33 33 30 31 32 32 32 33 31 28 30 32 31 33 33 34 34 34 33 31 31 32 31 29 27 29 30 29 30 31 30 30 30 28 31 32 34 36 38 36 35 33 35 34 34 34 34 35 35
35 36 36 32 35 31 31 40 37 36 36 37 36 38 39 38 38 38 38 37 37 37 36 36 36 36 36 35 34 34 34 34 34 35 34 33 32 31 30 31 31 31 31 31 32 32 31 30 28 30 32 33 33 33 33 34 32 32 32 31 30 30 30 29 29 29 31 31 29 30 28 31 30 31 34 36 37 36 35 33 33 35 34 34 34 35
31 36 32 33 34 29 33 37 37 38 37 37 36 37 37 37 37 38 38 38 38 38 37 36 36 36 36 35 35 34 34 34 33 33 31 29 29 28 28 28 28 27 27 29 30 29 29 29 29 30 31 32 32 32 31 31 31 31 32 30 29 29 30 30 29 26 27 28 29 27 27 29 28 30 30 32 37 35 35 35 35 34 36 36 36 35
32 34 26 35 33 35 36 38 36 39 37 36 36 38 38 38 37 37 38 38 37 36 36 36 36 35 35 35 35 35 34 32 32 31 29 28 28 26 25 25 25 25 24 24 28 30 30 30 29 31 31 31 30 30 31 33 33 31 33 31 30 31 30 30 30 30 29 29 28 27 27 29 28 27 28 29 36 38 37 36 37 36 37 40 38 39
31 28 33 33 31 32 32 34 36 33 33 36 37 37 38 38 38 38 38 37 36 35 35 35 35 35 35 35 34 33 32 30 29 29 27 25 25 26 26 23 23 24 26 27 28 29 31 31 32 33 31 30 30 29 30 33 34 34 31 31 29 30 30 30 30 30 28 27 28 27 27 29 26 26 26 27 27 37 38 35 35 37 38 38 35 34
34 33 32 30 30 30 34 35 37 35 36 36 37 37 38 38 38 37 37 36 36 35 35 35 34 34 34 33 32 31 29 28 27 26 24 22 24 26 25 22 21 23 25 28 30 30 31 31 32 32 30 29 30 28 29 31 33 34 32 31 30 29 30 29 29 28 27 27 28 27 28 28 29 27 27 27 27 28 28 39 37 35 35 35 36 35